Location: Poughquag
(41.6090°N, 73.6820°W)
Time: 21:47:33
(UTC-04:00)

RS-15 - Visible Passes

Search period start: 15 September 2024 00:00
Search period end: 25 September 2024 00:00
Orbit: 1898 x 2146 km, 64.8° (Epoch: 15 September)

Date Brightness Start Highest point End Pass type
(mag) Time Alt. Az. Time Alt. Az. Time Alt. Az.
15 Sep 9.5 01:49:46 10° NNW 01:58:39 26° NNE 02:07:24 10° ENE visible
15 Sep 8.2 04:02:36 10° NNW 04:13:33 68° NE 04:24:28 10° SE visible
15 Sep 8.5 20:37:13 10° SW 20:48:43 61° NW 20:59:47 10° NNE visible
15 Sep 9.6 22:55:09 10° WNW 23:04:01 25° NNW 23:12:42 10° NNE visible
16 Sep 9.6 01:13:16 10° NW 01:21:41 23° NNE 01:29:57 10° ENE visible
16 Sep 8.5 03:26:32 10° NNW 03:37:17 55° NE 03:47:57 10° SE visible
16 Sep 8.1 05:39:18 10° NW 05:49:25 46° WSW 05:59:36 10° S visible
16 Sep 8.3 20:00:47 10° SW 20:12:30 75° NW 20:23:44 10° NNE visible
16 Sep 9.5 22:17:39 10° W 22:27:06 29° NNW 22:36:19 10° NNE visible
17 Sep 9.7 00:36:34 10° NW 00:44:37 22° N 00:52:32 10° ENE visible
17 Sep 8.7 02:50:28 10° NNW 03:00:53 45° NE 03:11:12 10° ESE visible
17 Sep 7.9 05:03:01 10° NW 05:13:38 60° WSW 05:24:19 10° S visible
17 Sep 8.1 19:24:37 10° SSW 19:36:24 89° ESE 19:47:40 10° NE visible
17 Sep 9.3 21:40:16 10° W 21:50:19 33° NNW 22:00:06 10° NNE visible
17 Sep 9.7 23:59:35 10° NW 00:07:30 21° N 00:15:15 10° NE visible
18 Sep 9.0 02:14:21 10° NNW 02:24:21 37° NE 02:34:12 10° ESE visible
18 Sep 7.8 04:26:50 10° NW 04:37:44 77° WSW 04:48:41 10° SSE visible
18 Sep 9.1 21:03:04 10° WSW 21:13:41 40° NW 21:23:57 10° NNE visible
18 Sep 9.7 23:22:22 10° NW 23:30:21 21° N 23:38:12 10° NE visible
19 Sep 9.2 01:38:10 10° NNW 01:47:39 31° NNE 01:57:00 10° E visible
19 Sep 7.8 03:50:43 10° NNW 04:01:44 86° ENE 04:12:46 10° SSE visible
19 Sep 8.7 06:04:43 10° NW 06:12:38 24° WSW 06:20:38 10° SSW visible
19 Sep 8.9 20:26:05 10° WSW 20:37:10 48° NW 20:47:53 10° NNE visible
19 Sep 9.7 22:44:57 10° WNW 22:53:15 22° NNW 23:01:22 10° NE visible
20 Sep 9.4 01:01:52 10° NNW 01:10:49 27° NNE 01:19:39 10° ENE visible
20 Sep 8.0 03:14:38 10° NNW 03:25:38 70° NE 03:36:34 10° SE visible
20 Sep 8.4 05:27:54 10° NW 05:37:04 33° WSW 05:46:21 10° SSW visible
20 Sep 8.6 19:49:21 10° SW 20:00:48 59° NW 20:11:50 10° NNE visible
20 Sep 9.6 22:07:26 10° WNW 22:16:12 25° NNW 22:24:48 10° NNE visible
21 Sep 9.5 00:25:24 10° NNW 00:33:52 24° NNE 00:42:12 10° ENE visible
21 Sep 8.3 02:38:35 10° NNW 02:49:23 56° NE 03:00:05 10° SE visible
21 Sep 8.1 04:51:24 10° NW 05:01:25 44° WSW 05:11:31 10° S visible
21 Sep 8.4 19:12:53 10° SW 19:24:34 73° NW 19:35:48 10° NNE visible
21 Sep 9.5 21:29:55 10° W 21:39:16 28° NNW 21:48:24 10° NNE visible
21 Sep 9.6 23:48:44 10° NW 23:56:49 22° N 00:04:47 10° ENE visible
22 Sep 8.6 02:02:32 10° NNW 02:12:59 46° NE 02:23:22 10° ESE visible
22 Sep 7.8 04:15:05 10° NW 04:25:39 58° WSW 04:36:17 10° S visible
22 Sep 9.4 20:52:31 10° W 21:02:28 33° NNW 21:12:10 10° NNE visible
22 Sep 9.7 23:11:48 10° NW 23:19:42 21° N 23:27:28 10° NE visible
23 Sep 8.9 01:26:25 10° NNW 01:36:28 38° NE 01:46:24 10° ESE visible
23 Sep 7.7 03:38:53 10° NW 03:49:46 74° WSW 04:00:42 10° SSE visible
23 Sep 8.9 05:54:30 10° WNW 06:00:02 15° W 06:05:38 10° SW visible
23 Sep 9.2 20:15:17 10° WSW 20:25:48 39° NW 20:36:01 10° NNE visible
23 Sep 9.7 22:34:37 10° NW 22:42:34 21° N 22:50:22 10° NE visible
24 Sep 9.1 00:50:15 10° NNW 00:59:48 32° NNE 01:09:14 10° E visible
24 Sep 7.7 03:02:46 10° NNW 03:13:47 89° ENE 03:24:50 10° SSE visible
24 Sep 8.6 05:16:55 10° NW 05:24:36 23° W 05:32:22 10° SSW visible
24 Sep 9.0 19:38:16 10° WSW 19:49:17 47° NW 19:59:55 10° NNE visible
24 Sep 9.7 21:57:13 10° WNW 22:05:27 22° NNW 22:13:31 10° NE visible
